User: anonymous   Login
Location: Vancouver
(49.2500°N, 123.1330°W)
Time: 10:38:33
(UTC-08:00)
Language:

SO-67 - Orbit

View from above orbital plane
View from above orbital plane
View from above satellite
View from above satellite

Ground track
Ground track

The orbit data is extracted from the following two-line orbital elements,

1 35870U 09049F   14355.54474561  .00018796  00000-0  51963-3 0  8086
2 35870 097.1487 011.1919 0003054 108.2500 050.5018 15.37068227292789
Epoch (UTC): 21 December 2014 13:04:26
Eccentricity: 0.0003054
inclination: 97.1487°
perigee height: 453 km
apogee height: 457 km
right ascension of ascending node: 11.1919°
argument of perigee: 108.2500°
revolutions per day: 15.37068227
mean anomaly at epoch: 50.5018°
orbit number at epoch: 29278

The dashed part of the orbit path shows where the satellite is in the earth's shadow,  

DLR